[TLELIST] Archives

 

[TLELIST] Current TLEs

December 25th 2023 PST

HST 1 20580U 90037B 23358.69003597 .00007577 00000-0 38183-3 0 9996 2 20580 28.4698 78.6256 0002025 284.1927 208.1916 15.15297658650366 ISS (ZARYA) 1 25544U 98067A 23359.37992657 .00020259 00000-0 36585-3 0 9998 2 25544 51.6425 101.4778 0003014 312.6457 157.6731 15.49700627431446 CXO 1 25867U 99040B 23360.98382316 .00000347 00000-0 00000-0 0 9998 2 25867 38.0850 172.2287 9019923 282.5015 359.9763 0.37809092 13902 ...Continue Reading

[TLELIST] Current TLEs

December 24th 2023 PST

HST 1 20580U 90037B 23357.70151383 .00007708 00000-0 38876-3 0 9999 2 20580 28.4694 85.2222 0002041 266.1840 223.0278 15.15283983650218 ISS (ZARYA) 1 25544U 98067A 23358.54126836 .00025158 00000-0 45256-3 0 9992 2 25544 51.6420 105.6310 0002539 302.8651 165.6136 15.49672002431316 CXO 1 25867U 99040B 23360.98316995 .00000347 00000-0 00000+0 0 9997 2 25867 38.0851 172.2284 9019924 282.5018 359.8872 0.37809184 25066 ...Continue Reading

[TLELIST] Current TLEs

December 23rd 2023 PST

HST 1 20580U 90037B 23356.71317093 .00007467 00000-0 37647-3 0 9998 2 20580 28.4692 91.8190 0002121 256.1379 230.9265 15.15269810650067 ISS (ZARYA) 1 25544U 98067A 23356.79871559 .00021675 00000-0 37736-3 0 9990 2 25544 51.6407 114.2612 0002175 48.2628 51.5134 15.50694732431040 CXO 1 25867U 99040B 23353.05191155 .00000511 00000-0 00000-0 0 9990 2 25867 37.9681 173.3720 9018436 281.5573 0.2489 0.37806864 13884 ...Continue Reading

[TLELIST] Current TLEs

December 22nd 2023 PST

HST 1 20580U 90037B 23355.58533608 .00006322 00000-0 31745-3 0 9996 2 20580 28.4691 99.3480 0002041 247.6379 194.8914 15.15251925649893 ISS (ZARYA) 1 25544U 98067A 23356.21354366 .00022625 00000-0 39383-3 0 9995 2 25544 51.6413 117.1614 0002662 41.3295 29.5914 15.50671209430950 CXO 1 25867U 99040B 23353.05191155 .00000511 00000-0 00000-0 0 9990 2 25867 37.9681 173.3720 9018436 281.5573 0.2489 0.37806864 13884 ...Continue Reading

[TLELIST] Current TLEs

December 21st 2023 PST

HST 1 20580U 90037B 23354.73597057 .00006130 00000-0 30758-3 0 9990 2 20580 28.4688 105.0168 0002017 236.8278 243.2743 15.15240474649760 ISS (ZARYA) 1 25544U 98067A 23355.31412799 .00032857 00000-0 56826-3 0 9999 2 25544 51.6412 121.6274 0002555 43.5692 43.1953 15.50642142430811 CXO 1 25867U 99040B 23353.05191155 .00000511 00000-0 00000-0 0 9990 2 25867 37.9681 173.3720 9018436 281.5573 0.2489 0.37806864 13884 ...Continue Reading

[TLELIST] Current TLEs

December 20th 2023 PST

HST 1 20580U 90037B 23353.53864154 .00005659 00000-0 28335-3 0 9995 2 20580 28.4686 113.0071 0002179 219.1690 196.6836 15.15225025649580 ISS (ZARYA) 1 25544U 98067A 23354.41299744 .00018101 00000-0 31769-3 0 9997 2 25544 51.6404 126.0928 0001896 47.3717 45.7843 15.50595703430674 CXO 1 25867U 99040B 23353.05191155 .00000511 00000-0 00000-0 0 9990 2 25867 37.9681 173.3720 9018436 281.5573 0.2489 0.37806864 13884 ...Continue Reading

[TLELIST] Current TLEs

December 19th 2023 PST

HST 1 20580U 90037B 23352.75896513 .00005814 00000-0 29141-3 0 9991 2 20580 28.4686 118.2107 0002230 209.6965 264.7067 15.15215952649462 ISS (ZARYA) 1 25544U 98067A 23353.44924648 .00019019 00000-0 33374-3 0 9990 2 25544 51.6398 130.8734 0002045 36.8913 72.9727 15.50562609430528 CXO 1 25867U 99040B 23353.05191155 .00000511 00000-0 00000-0 0 9990 2 25867 37.9681 173.3720 9018436 281.5573 0.2489 0.37806864 13884 ...Continue Reading

[TLELIST] Current TLEs

December 18th 2023 PST

HST 1 20580U 90037B 23351.84020922 .00004976 00000-0 24811-3 0 9990 2 20580 28.4681 124.3424 0002210 198.1196 294.7049 15.15204489649324 ISS (ZARYA) 1 25544U 98067A 23351.90722637 .00018430 00000-0 32438-3 0 9999 2 25544 51.6406 138.5176 0002199 38.2837 98.4608 15.50501267430281 CXO 1 25867U 99040B 23353.05191155 .00000511 00000-0 00000-0 0 9990 2 25867 37.9681 173.3720 9018436 281.5573 0.2489 0.37806864 13884 ...Continue Reading

[TLELIST] Current TLEs

December 17th 2023 PST

HST 1 20580U 90037B 23350.85185443 .00003950 00000-0 19498-3 0 9996 2 20580 28.4677 130.9389 0002280 185.8113 305.0748 15.15193405649171 ISS (ZARYA) 1 25544U 98067A 23350.94162340 .00013182 00000-0 23473-3 0 9999 2 25544 51.6404 143.3031 0001948 36.0384 107.4005 15.50461250430130 CXO 1 25867U 99040B 23353.05191155 .00000511 00000-0 00000-0 0 9990 2 25867 37.9681 173.3720 9018436 281.5573 0.2489 0.37806864 13884 ...Continue Reading

[TLELIST] Current TLEs

December 16th 2023 PST

HST 1 20580U 90037B 23349.66238875 .00003662 00000-0 18011-3 0 9991 2 20580 28.4672 138.8770 0002512 174.6874 295.1164 15.15183129648997 ISS (ZARYA) 1 25544U 98067A 23350.41698703 .00014861 00000-0 26367-3 0 9998 2 25544 51.6405 145.9039 0001917 35.5611 57.6211 15.50451193430051 CXO 1 25867U 99040B 23353.05171036 .00000511 00000-0 00000+0 0 9995 2 25867 37.9685 173.3829 9018427 281.5460 0.2219 0.37809532 25039 ...Continue Reading
  • This mailing list is a public mailing list - anyone may join or leave, at any time.
  • This mailing list is announce-only.

International Space Station (ISS) / Hubble Space Telescope (HST) / Chandra X-Ray Observatory Orbital Data via EMAIL

Privacy Policy:

Private list